This is the latest recevied weather packets stored in our database for station/object OK1FET-15. If no packets are shown the sender has not sent any weather packets the latest 10 day(s).
| Time | Temp. | Humidity | Pressure | Rain* | Wind** | Luminosity | Snow |
|---|---|---|---|---|---|---|---|
| 1787503814 | 19.44° C | 55% | 1021.5 hPa | - | - | - | - |
| 1787503506 | 19.44° C | 54% | 1021.5 hPa | - | - | - | - |
| 1787503199 | 19.44° C | 53% | 1021.6 hPa | - | - | - | - |
| 1787502891 | 20° C | 52% | 1021.6 hPa | - | - | - | - |
| 1787502583 | 20° C | 52% | 1021.6 hPa | - | - | - | - |
| 1787502276 | 19.44° C | 52% | 1021.6 hPa | - | - | - | - |
| 1787501968 | 19.44° C | 51% | 1021.6 hPa | - | - | - | - |
| 1787501660 | 20° C | 50% | 1021.6 hPa | - | - | - | - |
| 1787501352 | 20° C | 49% | 1021.7 hPa | - | - | - | - |
| 1787501045 | 20° C | 48% | 1021.6 hPa | - | - | - | - |
| 1787500737 | 20.56° C | 46% | 1021.6 hPa | - | - | - | - |
| 1787500429 | 20.56° C | 46% | 1021.6 hPa | - | - | - | - |
| 1787500121 | 21.11° C | 43% | 1021.5 hPa | - | - | - | - |
| 1787499813 | 21.67° C | 44% | 1021.5 hPa | - | - | - | - |
| 1787499505 | 22.22° C | 42% | 1021.5 hPa | - | - | - | - |
| 1787499197 | 23.33° C | 41% | 1021.6 hPa | - | - | - | - |
| 1787498889 | 23.89° C | 43% | 1021.5 hPa | - | - | - | - |
| 1787498581 | 25° C | 42% | 1021.5 hPa | - | - | - | - |
| 1787498273 | 25.56° C | 42% | 1021.5 hPa | - | - | - | - |
| 1787497964 | 25.56° C | 44% | 1021.5 hPa | - | - | - | - |
| 1787497656 | 25° C | 43% | 1021.6 hPa | - | - | - | - |
| 1787497348 | 24.44° C | 42% | 1021.6 hPa | - | - | - | - |
| 1787497040 | 23.89° C | 44% | 1021.7 hPa | - | - | - | - |
| 1787496732 | 23.33° C | 45% | 1021.8 hPa | - | - | - | - |
| 1787496424 | 23.89° C | 43% | 1021.8 hPa | - | - | - | - |
* Rain since midnight (hover to see other rain measurements)
** Current wind speed in m/s (hover to see current wind gust speed)